SCP
0 0 0 -0 0 0 0 0 0 0 0 0 0 0 0 0 0 0 0 0 0 0 -0 0 0 0 0 0 0 0 0 0 0 0 0 0 0 0 0 0 0 0 0 0
0 0 0 0 0 0 0 0 0 0 0 0 0 0 0 0 0 0 0 0 0 0 0 -0 -0 -0 0 -0 0 0 0 0 0 0 0 0 0 0 0 0 0 0 0 0
0 0 0 0 0 0 0 0 0 0 0 0 0 0 0 0 0 0 0 0 0 0 0 -0 -0 -0 0 0 0 0 0 0 0 0 0 0 0 0 0 0 0 0 0 0
0 0 0 0 0 0 0 0 0 0 0 0 0 0 0 0 0 0 0 0 0 0 0 -0 -0 -0 0 0 0 0 0 0 0 0 0 0 0 0 0 0 0 0 0 0
0 0 0 0 0 0 0 0 0 0 0 0 0 0 0 0 0 0 0 0 0 0 0 0 0 -0 0 0 0 0 0 0 0 0 0 0 0 0 0 0 0 0 0 0
0 0 0 0 0 0 0 0 0 0 0 0 0 0 0 0 0 0 0 0 0 0 0 0 0 0 0 0 0 0 0 0 0 0 0 -0 0 0 0 0 0 0 0 0
0 0 0 0 0 0 0 0 0 0 0 0 0 0 0 0 0 0 0 0 0 0 0 0 0 0 0 0 0 0 0 0 0 0 -0 -0 -0 0 0 0 0 0 0 0
0 0 0 0 0 0 0 0 0 0 0 0 0 0 0 0 0 0 0 0 0 0 0 0 0 0 0 0 0 -0 0 0 0 -0 0 0 0 0 0 0 0 0 0 0
0 0 0 -0 0 0 0 0 0 0 0 0 0 0 0 0 0 0 0 0 0 0 0 0 0 0 -0 -0 -0 0 0 0 -0 0 0 0 0 0 0 0 0 0 0 -0
0 0 -0 -0 0 0 0 0 0 0 0 0 0 0 0 0 0 0 0 0 0 0 -0 -0 -0 -0 -0 -0 -0 -0 -0 -0 -0 0 0 0 0 0 0 0 0 -0 0 0
0 -0 -0 -0 -0 0 0 0 0 0 0 0 0 0 0 0 0 0 0 0 0 0 0 -0 -0 -0 -0 -0 -0 -0 -0 0 0 0 -0 -0 -0 -0 0 0 0 0 0 0
0 0 0 0 0 0 0 0 0 0 0 0 0 0 0 0 0 0 0 0 0 0 0 0 -0 -0 -0 -0 -0 -0 -0 -0 0 -0 0 0 0 0 0 0 0 0 0 0
0 0 0 0 0 0 0 0 0 0 0 0 0 0 0 0 0 0 0 0 0 0 0 0 0 0 0 -0 -0 0 0 0 0 0 0 0 0 0 0 0 0 0 0 0
0 0 0 0 0 0 0 0 0 0 0 0 0 0 0 0 0 0 0 0 0 0 0 0 0 0 0 0 0 0 0 0 0 0 0 0 0 0 0 0 0 0 0 0
-0 -0 0 0 0 0 0 0 0 0 0 0 0 0 0 0 0 0 0 0 0 0 0 0 0 0 0 0 0 0 0 0 0 0 0 0 0 0 0 0 0 0 0 0
-0 -0 0 0 0 0 0 0 0 0 0 0 0 0 0 0 0 0 0 0 0 0 0 0 0 0 0 0 0 0 0 0 0 0 0 0 0 0 0 0 0 0 0 0
0 0 -0 -0 -0 0 0 0 0 0 0 0 0 0 0 0 0 0 0 0 0 0 0 0 0 0 0 0 0 0 0 0 0 0 0 0 0 0 0 0 0 0 0 0
0 -0 -0 0 -0 0 0 0 0 0 0 0 0 0 0 0 0 0 -0 0 0 0 0 0 0 0 0 0 0 0 0 0 0 0 0 0 0 0 0 0 0 0 0 0
0 0 -0 0 0 0 0 0 0 0 0 0 0 -0 -0 0 -0 0 0 0 0 0 -0 0 0 0 0 0 0 0 0 0 0 0 0 0 0 0 0 0 0 0 0 0
0 0 -0 -0 0 0 0 0 0 0 0 0 0 0 0 0 0 0 0 0 0 0 -0 -0 -0 -0 -0 0 0 0 0 0 0 0 0 0 0 0 0 0 0 0 0 0
0 0 0 0 0 0 0 0 -0 -0 -0 -0 -0 0 0 0 -0 0 0 0 0 -0 -0 0 0 0 0 0 0 0 0 0 0 0 0 0 0 0 0 0 0 0 0 0
0 0 0 0 0 0 0 0 0 -0 -0 -0 -0 -0 -0 -0 -0 -0 -0 -0 0 0 0 0 0 0 0 0 0 0 0 0 0 0 0 0 0 0 0 0 0 0 0 0
0 0 0 0 0 0 0 0 0 0 -0 -0 -0 -0 -0 -0 -0 -0 0 -0 0 0 0 0 0 0 0 0 0 0 0 0 0 0 0 0 0 0 0 0 0 0 0 0
0 0 0 0 0 0 0 0 0 0 0 0 0 0 0 0 0 0 0 0 0 0 0 0 0 0 0 0 0 0 0 0 0 0 0 0 0 0 0 0 0 0 0 0
0 0 0 0 0 0 0 0 0 0 0 0 0 0 0 0 0 0 0 0 0 0 0 0 0 0 0 0 0 0 0 0 0 0 0 0 0 0 0 0 0 0 0 0
0 0 0 0 0 0 0 0 0 0 0 0 0 0 0 0 0 0 0 0 0 0 0 0 0 0 0 0 0 0 0 0 0 0 0 0 0 0 0 0 0 0 0 0
0 0 0 0 0 0 0 0 0 0 0 0 0 0 0 0 0 0 0 0 0 0 0 0 0 0 0 0 0 0 0 0 0 0 0 0 0 0 0 0 0 0 0 0
Wind_Speed_500mb
23 35 31 35 38 28 29 24 15 19 26 50 42 43 41 48 69 65 66 69 70 72 70 60 51 41 25 20 17 17 25 34 46 57 50 49 47 40 41 44 48 53 63 71
10 7 7 18 32 33 33 31 36 45 51 24 52 57 50 54 65 64 65 65 67 67 62 57 50 43 35 30 28 24 29 39 42 44 55 56 54 50 54 59 68 71 76 75
9 13 23 14 15 24 12 20 11 16 22 27 36 37 39 59 62 61 63 62 62 59 55 49 45 40 40 39 35 40 46 49 52 57 58 64 66 63 74 77 77 75 72 74
9 13 7 2 4 2 14 21 24 23 28 25 36 46 21 58 59 61 61 58 54 49 46 43 37 37 37 41 45 47 54 57 58 60 67 69 73 77 82 84 81 83 82 80
5 5 19 8 7 10 10 9 9 13 20 30 40 23 9 63 60 54 53 50 44 40 38 37 38 36 38 47 50 55 59 61 64 66 77 78 81 82 84 84 84 81 76 74
4 4 9 1 7 3 8 7 12 11 14 22 34 17 13 50 53 53 51 50 47 40 36 39 41 39 45 52 52 57 57 61 62 68 76 82 85 85 84 82 79 76 75 64
10 10 21 20 12 8 3 1 9 8 5 10 5 7 22 28 39 42 46 51 49 48 45 44 46 49 58 60 63 58 58 62 67 70 74 77 79 77 77 78 73 65 64 57
7 8 15 28 18 12 4 12 6 6 2 3 8 9 9 15 26 36 43 46 48 51 54 53 56 60 66 69 66 69 72 75 75 72 69 68 66 69 68 67 62 58 54 52
23 14 5 41 5 33 18 10 8 2 4 1 8 6 3 7 14 23 32 39 44 50 52 54 55 58 64 66 68 69 70 73 72 70 69 64 61 60 60 57 55 54 51 48
3 11 43 56 59 47 35 34 27 27 22 8 6 7 2 1 6 12 19 27 32 36 43 48 48 50 55 54 55 57 61 60 56 53 52 50 48 46 44 42 40 38 36 32
13 31 43 58 53 49 34 40 32 27 20 13 12 9 8 7 6 9 13 18 19 23 31 36 37 40 42 41 40 43 46 46 44 42 40 41 37 33 29 29 25 23 23 20
15 23 11 11 12 13 25 46 41 35 24 20 20 17 13 12 12 11 12 14 16 18 20 25 26 29 32 30 25 28 34 33 30 30 31 32 33 35 31 27 26 23 20 15
15 26 22 14 13 13 18 28 44 39 26 24 23 21 17 16 14 16 16 15 14 15 17 19 21 23 26 26 22 19 21 22 20 19 21 20 19 19 20 23 20 16 13 13
59 38 22 29 12 17 10 28 39 33 30 27 24 25 21 18 18 19 19 19 18 17 17 17 18 18 19 21 20 19 16 14 13 13 15 15 14 15 13 13 15 16 19 20
63 65 44 20 33 25 24 29 37 38 34 32 29 27 24 20 20 19 21 21 22 21 21 20 19 18 16 16 17 16 14 9 7 7 10 12 13 15 15 16 18 20 19 18
36 66 67 55 33 37 37 39 40 38 37 33 30 29 28 26 24 22 22 23 23 20 20 20 21 19 17 16 15 14 14 10 10 10 11 14 17 20 22 24 25 25 25 26
34 46 68 73 68 58 53 46 43 39 34 35 30 30 33 30 29 26 24 23 22 21 21 21 21 18 16 14 14 14 17 20 18 22 21 21 23 25 27 30 31 31 31 33
47 41 30 54 65 68 62 49 45 45 42 32 34 38 38 38 31 28 26 25 25 24 24 23 21 19 18 17 20 20 21 24 27 29 32 31 30 31 33 35 37 38 38 40
84 47 43 29 40 48 58 55 49 45 40 38 41 41 37 37 36 32 30 29 28 29 28 27 26 24 24 26 29 28 28 30 32 32 32 35 37 37 38 40 42 43 44 46
86 87 53 37 34 45 47 52 49 48 46 42 39 39 41 43 41 36 34 33 32 32 34 31 30 29 29 32 33 32 32 32 32 32 33 34 36 38 41 43 45 46 48 51
61 84 78 52 39 40 45 44 52 55 51 48 46 41 41 41 45 42 44 44 39 37 36 35 33 31 31 29 28 29 31 33 34 34 34 36 38 41 44 45 47 49 52 54
46 76 86 66 48 39 43 49 49 47 50 50 47 43 42 48 50 51 48 43 36 39 39 37 35 34 32 31 32 33 33 35 36 38 39 40 42 44 46 49 52 53 55 57
38 60 76 70 53 41 44 46 47 47 45 46 48 47 48 49 49 51 48 41 44 42 41 38 37 36 34 34 35 36 37 38 39 41 43 45 47 49 51 53 54 56 59 60
39 56 70 63 55 48 47 43 42 41 39 40 42 42 44 47 49 48 40 37 39 42 40 40 39 38 37 37 38 39 40 41 42 44 47 49 51 53 55 57 59 59 61 63
38 64 65 68 63 53 40 38 40 42 43 44 46 47 47 46 45 40 44 41 40 41 41 42 41 40 40 41 42 43 44 45 47 49 51 53 54 56 59 61 62 63 63 62
42 67 56 58 62 53 40 39 42 42 43 43 43 45 46 46 45 45 44 45 47 45 43 42 41 42 42 42 44 46 48 49 51 53 54 56 57 58 59 61 64 64 64 64
40 54 60 49 52 57 51 48 44 45 40 36 35 38 40 43 43 44 45 43 41 42 44 45 45 45 46 47 47 48 50 53 54 56 58 59 60 60 64 62 62 61 61 59
Wind_Direction_500mb
263 270 277 274 268 250 228 222 240 287 301 301 315 330 324 332 338 341 346 348 350 353 359 9 22 32 45 87 122 149 170 180 180 175 174 185 166 164 162 167 167 162 160 153
280 282 258 271 259 250 241 242 255 268 280 279 332 329 334 343 343 346 349 351 354 0 9 19 31 49 63 77 96 130 143 150 148 152 145 151 151 155 156 149 150 147 151 148
269 340 310 267 240 199 186 193 199 259 297 327 326 327 339 346 348 348 349 354 0 7 16 26 39 57 74 89 109 119 125 131 140 147 147 146 146 147 146 145 147 147 142 139
289 312 270 43 277 179 242 257 227 267 281 310 305 312 329 1 354 350 357 1 9 11 25 36 49 65 85 100 109 121 123 127 134 138 141 139 139 142 140 138 139 135 134 133
286 273 299 258 182 178 191 279 206 239 302 323 324 315 40 5 7 6 9 11 16 23 31 47 62 75 90 99 107 112 117 123 129 134 134 136 137 136 133 134 132 129 127 125
158 242 259 55 150 93 140 264 184 242 307 331 340 14 0 357 8 18 23 24 29 35 47 61 72 83 91 97 103 104 112 117 125 129 130 128 130 130 131 133 128 127 122 130
196 251 279 246 152 145 246 75 183 214 281 329 342 306 321 3 19 26 35 40 44 50 58 72 83 90 94 96 97 105 110 115 118 122 124 126 127 129 128 125 123 129 136 138
155 221 275 167 138 205 147 147 139 185 234 315 309 324 349 20 32 34 44 52 54 60 68 76 85 93 98 101 107 109 111 114 116 119 122 126 128 126 124 123 136 140 140 142
199 217 289 197 238 201 187 198 202 200 321 317 293 298 342 36 52 53 57 62 68 72 75 78 83 89 95 105 112 116 119 120 122 124 125 125 123 124 133 143 146 148 151 152
187 247 237 241 244 243 236 247 263 274 285 222 245 278 267 102 75 84 83 81 79 83 85 88 88 91 95 102 108 114 115 115 114 118 123 126 129 134 139 144 148 148 150 151
258 279 267 262 257 251 253 246 251 235 214 200 189 240 231 205 169 133 115 107 104 97 97 98 100 101 102 103 107 110 112 115 118 119 122 124 126 129 136 143 149 150 155 162
231 230 234 238 234 233 226 232 228 203 203 203 194 205 226 213 191 168 150 135 129 120 115 113 112 110 109 108 109 113 116 117 120 128 136 141 147 149 153 160 162 168 178 185
239 225 222 243 224 240 252 215 196 203 219 206 197 193 204 217 201 186 178 168 156 146 138 134 131 131 129 125 120 119 114 111 116 129 143 153 159 169 172 178 185 194 207 222
232 234 233 228 235 228 223 187 193 206 204 205 205 189 201 209 209 198 187 185 178 173 165 161 159 155 151 145 139 140 138 124 118 140 156 170 178 187 200 213 220 224 235 240
232 229 232 238 219 209 196 185 188 195 204 207 204 192 201 204 208 207 200 195 191 185 182 180 180 177 177 171 167 169 173 170 159 163 186 197 208 216 222 230 237 243 249 257
240 229 228 228 224 212 208 204 206 208 212 213 212 202 194 204 209 210 211 206 203 200 195 194 190 191 196 193 198 205 208 216 238 232 232 232 233 235 238 242 246 251 257 263
218 210 216 224 222 217 217 218 221 223 222 219 224 208 200 206 213 212 212 209 205 207 208 210 206 209 212 216 220 233 239 240 255 260 257 256 250 250 251 252 255 258 262 265
237 246 251 237 226 220 219 215 213 212 216 225 219 214 209 207 212 215 215 213 213 216 219 217 218 224 238 238 239 247 263 260 259 259 255 257 259 259 261 262 264 266 268 267
233 231 235 244 237 233 225 218 212 212 214 216 216 218 219 205 210 215 217 218 219 221 222 222 226 235 236 243 250 259 258 258 260 261 260 256 256 260 264 267 268 269 269 270
219 221 227 222 221 214 216 218 214 213 214 220 216 216 215 205 207 215 218 223 225 227 225 226 230 239 246 255 263 261 263 266 269 270 269 268 264 266 269 270 271 271 272 273
211 209 213 215 219 216 212 211 213 214 215 220 219 220 220 210 205 212 218 223 221 222 221 226 231 242 256 261 258 258 260 262 262 263 263 263 265 267 268 269 269 269 271 272
212 206 207 211 219 214 209 210 210 213 217 220 220 217 217 214 209 216 222 227 223 221 224 229 237 245 252 253 256 258 263 267 267 267 268 267 267 267 268 268 269 271 272 272
219 206 203 207 214 216 213 206 209 212 215 215 215 216 218 217 218 215 222 219 221 225 230 236 242 250 253 257 259 261 264 266 268 268 268 268 269 270 272 273 273 274 275 275
207 201 193 201 206 208 210 203 203 209 209 210 213 215 216 216 219 223 228 229 230 230 234 239 245 248 253 258 260 262 263 266 268 270 271 271 273 274 275 276 276 277 277 277
205 189 192 199 203 206 204 212 206 208 206 206 209 211 210 212 219 223 226 226 228 231 238 244 248 252 257 262 264 265 268 270 272 274 276 278 279 279 279 281 282 282 282 282
200 191 200 204 208 203 205 220 217 213 212 210 212 213 213 216 219 222 226 229 233 237 242 247 252 257 262 267 271 271 272 274 276 278 280 281 282 284 285 284 283 283 283 282
201 206 207 210 209 209 214 219 220 216 216 216 220 221 221 223 226 229 231 235 239 243 247 253 260 265 269 272 275 278 278 279 280 281 283 284 285 285 286 288 288 289 290 292
Wind_Speed_850mb
23 35 31 35 38 28 29 24 15 19 26 50 42 43 41 48 69 65 66 69 70 72 70 60 51 41 25 20 17 17 25 34 46 57 50 49 47 40 41 44 48 53 63 71
10 7 7 18 32 33 33 31 36 45 51 24 52 57 50 54 65 64 65 65 67 67 62 57 50 43 35 30 28 24 29 39 42 44 55 56 54 50 54 59 68 71 76 75
9 13 23 14 15 24 12 20 11 16 22 27 36 37 39 59 62 61 63 62 62 59 55 49 45 40 40 39 35 40 46 49 52 57 58 64 66 63 74 77 77 75 72 74
9 13 7 2 4 2 14 21 24 23 28 25 36 46 21 58 59 61 61 58 54 49 46 43 37 37 37 41 45 47 54 57 58 60 67 69 73 77 82 84 81 83 82 80
5 5 19 8 7 10 10 9 9 13 20 30 40 23 9 63 60 54 53 50 44 40 38 37 38 36 38 47 50 55 59 61 64 66 77 78 81 82 84 84 84 81 76 74
4 4 9 1 7 3 8 7 12 11 14 22 34 17 13 50 53 53 51 50 47 40 36 39 41 39 45 52 52 57 57 61 62 68 76 82 85 85 84 82 79 76 75 64
10 10 21 20 12 8 3 1 9 8 5 10 5 7 22 28 39 42 46 51 49 48 45 44 46 49 58 60 63 58 58 62 67 70 74 77 79 77 77 78 73 65 64 57
7 8 15 28 18 12 4 12 6 6 2 3 8 9 9 15 26 36 43 46 48 51 54 53 56 60 66 69 66 69 72 75 75 72 69 68 66 69 68 67 62 58 54 52
23 14 5 41 5 33 18 10 8 2 4 1 8 6 3 7 14 23 32 39 44 50 52 54 55 58 64 66 68 69 70 73 72 70 69 64 61 60 60 57 55 54 51 48
3 11 43 56 59 47 35 34 27 27 22 8 6 7 2 1 6 12 19 27 32 36 43 48 48 50 55 54 55 57 61 60 56 53 52 50 48 46 44 42 40 38 36 32
13 31 43 58 53 49 34 40 32 27 20 13 12 9 8 7 6 9 13 18 19 23 31 36 37 40 42 41 40 43 46 46 44 42 40 41 37 33 29 29 25 23 23 20
15 23 11 11 12 13 25 46 41 35 24 20 20 17 13 12 12 11 12 14 16 18 20 25 26 29 32 30 25 28 34 33 30 30 31 32 33 35 31 27 26 23 20 15
15 26 22 14 13 13 18 28 44 39 26 24 23 21 17 16 14 16 16 15 14 15 17 19 21 23 26 26 22 19 21 22 20 19 21 20 19 19 20 23 20 16 13 13
59 38 22 29 12 17 10 28 39 33 30 27 24 25 21 18 18 19 19 19 18 17 17 17 18 18 19 21 20 19 16 14 13 13 15 15 14 15 13 13 15 16 19 20
63 65 44 20 33 25 24 29 37 38 34 32 29 27 24 20 20 19 21 21 22 21 21 20 19 18 16 16 17 16 14 9 7 7 10 12 13 15 15 16 18 20 19 18
36 66 67 55 33 37 37 39 40 38 37 33 30 29 28 26 24 22 22 23 23 20 20 20 21 19 17 16 15 14 14 10 10 10 11 14 17 20 22 24 25 25 25 26
34 46 68 73 68 58 53 46 43 39 34 35 30 30 33 30 29 26 24 23 22 21 21 21 21 18 16 14 14 14 17 20 18 22 21 21 23 25 27 30 31 31 31 33
47 41 30 54 65 68 62 49 45 45 42 32 34 38 38 38 31 28 26 25 25 24 24 23 21 19 18 17 20 20 21 24 27 29 32 31 30 31 33 35 37 38 38 40
84 47 43 29 40 48 58 55 49 45 40 38 41 41 37 37 36 32 30 29 28 29 28 27 26 24 24 26 29 28 28 30 32 32 32 35 37 37 38 40 42 43 44 46
86 87 53 37 34 45 47 52 49 48 46 42 39 39 41 43 41 36 34 33 32 32 34 31 30 29 29 32 33 32 32 32 32 32 33 34 36 38 41 43 45 46 48 51
61 84 78 52 39 40 45 44 52 55 51 48 46 41 41 41 45 42 44 44 39 37 36 35 33 31 31 29 28 29 31 33 34 34 34 36 38 41 44 45 47 49 52 54
46 76 86 66 48 39 43 49 49 47 50 50 47 43 42 48 50 51 48 43 36 39 39 37 35 34 32 31 32 33 33 35 36 38 39 40 42 44 46 49 52 53 55 57
38 60 76 70 53 41 44 46 47 47 45 46 48 47 48 49 49 51 48 41 44 42 41 38 37 36 34 34 35 36 37 38 39 41 43 45 47 49 51 53 54 56 59 60
39 56 70 63 55 48 47 43 42 41 39 40 42 42 44 47 49 48 40 37 39 42 40 40 39 38 37 37 38 39 40 41 42 44 47 49 51 53 55 57 59 59 61 63
38 64 65 68 63 53 40 38 40 42 43 44 46 47 47 46 45 40 44 41 40 41 41 42 41 40 40 41 42 43 44 45 47 49 51 53 54 56 59 61 62 63 63 62
42 67 56 58 62 53 40 39 42 42 43 43 43 45 46 46 45 45 44 45 47 45 43 42 41 42 42 42 44 46 48 49 51 53 54 56 57 58 59 61 64 64 64 64
40 54 60 49 52 57 51 48 44 45 40 36 35 38 40 43 43 44 45 43 41 42 44 45 45 45 46 47 47 48 50 53 54 56 58 59 60 60 64 62 62 61 61 59
Wind_Direction_850mb
263 270 277 274 268 250 228 222 240 287 301 301 315 330 324 332 338 341 346 348 350 353 359 9 22 32 45 87 122 149 170 180 180 175 174 185 166 164 162 167 167 162 160 153
280 282 258 271 259 250 241 242 255 268 280 279 332 329 334 343 343 346 349 351 354 0 9 19 31 49 63 77 96 130 143 150 148 152 145 151 151 155 156 149 150 147 151 148
269 340 310 267 240 199 186 193 199 259 297 327 326 327 339 346 348 348 349 354 0 7 16 26 39 57 74 89 109 119 125 131 140 147 147 146 146 147 146 145 147 147 142 139
289 312 270 43 277 179 242 257 227 267 281 310 305 312 329 1 354 350 357 1 9 11 25 36 49 65 85 100 109 121 123 127 134 138 141 139 139 142 140 138 139 135 134 133
286 273 299 258 182 178 191 279 206 239 302 323 324 315 40 5 7 6 9 11 16 23 31 47 62 75 90 99 107 112 117 123 129 134 134 136 137 136 133 134 132 129 127 125
158 242 259 55 150 93 140 264 184 242 307 331 340 14 0 357 8 18 23 24 29 35 47 61 72 83 91 97 103 104 112 117 125 129 130 128 130 130 131 133 128 127 122 130
196 251 279 246 152 145 246 75 183 214 281 329 342 306 321 3 19 26 35 40 44 50 58 72 83 90 94 96 97 105 110 115 118 122 124 126 127 129 128 125 123 129 136 138
155 221 275 167 138 205 147 147 139 185 234 315 309 324 349 20 32 34 44 52 54 60 68 76 85 93 98 101 107 109 111 114 116 119 122 126 128 126 124 123 136 140 140 142
199 217 289 197 238 201 187 198 202 200 321 317 293 298 342 36 52 53 57 62 68 72 75 78 83 89 95 105 112 116 119 120 122 124 125 125 123 124 133 143 146 148 151 152
187 247 237 241 244 243 236 247 263 274 285 222 245 278 267 102 75 84 83 81 79 83 85 88 88 91 95 102 108 114 115 115 114 118 123 126 129 134 139 144 148 148 150 151
258 279 267 262 257 251 253 246 251 235 214 200 189 240 231 205 169 133 115 107 104 97 97 98 100 101 102 103 107 110 112 115 118 119 122 124 126 129 136 143 149 150 155 162
231 230 234 238 234 233 226 232 228 203 203 203 194 205 226 213 191 168 150 135 129 120 115 113 112 110 109 108 109 113 116 117 120 128 136 141 147 149 153 160 162 168 178 185
239 225 222 243 224 240 252 215 196 203 219 206 197 193 204 217 201 186 178 168 156 146 138 134 131 131 129 125 120 119 114 111 116 129 143 153 159 169 172 178 185 194 207 222
232 234 233 228 235 228 223 187 193 206 204 205 205 189 201 209 209 198 187 185 178 173 165 161 159 155 151 145 139 140 138 124 118 140 156 170 178 187 200 213 220 224 235 240
232 229 232 238 219 209 196 185 188 195 204 207 204 192 201 204 208 207 200 195 191 185 182 180 180 177 177 171 167 169 173 170 159 163 186 197 208 216 222 230 237 243 249 257
240 229 228 228 224 212 208 204 206 208 212 213 212 202 194 204 209 210 211 206 203 200 195 194 190 191 196 193 198 205 208 216 238 232 232 232 233 235 238 242 246 251 257 263
218 210 216 224 222 217 217 218 221 223 222 219 224 208 200 206 213 212 212 209 205 207 208 210 206 209 212 216 220 233 239 240 255 260 257 256 250 250 251 252 255 258 262 265
237 246 251 237 226 220 219 215 213 212 216 225 219 214 209 207 212 215 215 213 213 216 219 217 218 224 238 238 239 247 263 260 259 259 255 257 259 259 261 262 264 266 268 267
233 231 235 244 237 233 225 218 212 212 214 216 216 218 219 205 210 215 217 218 219 221 222 222 226 235 236 243 250 259 258 258 260 261 260 256 256 260 264 267 268 269 269 270
219 221 227 222 221 214 216 218 214 213 214 220 216 216 215 205 207 215 218 223 225 227 225 226 230 239 246 255 263 261 263 266 269 270 269 268 264 266 269 270 271 271 272 273
211 209 213 215 219 216 212 211 213 214 215 220 219 220 220 210 205 212 218 223 221 222 221 226 231 242 256 261 258 258 260 262 262 263 263 263 265 267 268 269 269 269 271 272
212 206 207 211 219 214 209 210 210 213 217 220 220 217 217 214 209 216 222 227 223 221 224 229 237 245 252 253 256 258 263 267 267 267 268 267 267 267 268 268 269 271 272 272
219 206 203 207 214 216 213 206 209 212 215 215 215 216 218 217 218 215 222 219 221 225 230 236 242 250 253 257 259 261 264 266 268 268 268 268 269 270 272 273 273 274 275 275
207 201 193 201 206 208 210 203 203 209 209 210 213 215 216 216 219 223 228 229 230 230 234 239 245 248 253 258 260 262 263 266 268 270 271 271 273 274 275 276 276 277 277 277
205 189 192 199 203 206 204 212 206 208 206 206 209 211 210 212 219 223 226 226 228 231 238 244 248 252 257 262 264 265 268 270 272 274 276 278 279 279 279 281 282 282 282 282
200 191 200 204 208 203 205 220 217 213 212 210 212 213 213 216 219 222 226 229 233 237 242 247 252 257 262 267 271 271 272 274 276 278 280 281 282 284 285 284 283 283 283 282
201 206 207 210 209 209 214 219 220 216 216 216 220 221 221 223 226 229 231 235 239 243 247 253 260 265 269 272 275 278 278 279 280 281 283 284 285 285 286 288 288 289 290 292